Columbia, MO

5:58 AM CST on November 22, 2017 (GMT -0600)
Columbia Regional

Weather History for KCOU - September, 2014

Change the Weather History Date:

Monday, September 1, 2014

  Actual Average Record
Temperature  
Mean Temperature 75 °F 73 °F  
Max Temperature 84 °F 84 °F 102 °F (1913)
Min Temperature 66 °F 63 °F 45 °F (1967)
Degree Days  
Heating Degree Days 0 0  
Month to date heating degree days 0 0  
Since 1 July heating degree days 0 2  
Cooling Degree Days 10 9  
Month to date cooling degree days 10 9  
Year to date cooling degree days 1120 1092  
Growing Degree Days 25 (Base 50)    
Moisture  
Dew Point 68 °F    
Average Humidity 74    
Maximum Humidity 93    
Minimum Humidity 55    
Precipitation  
Precipitation 4.50 in 0.14 in 4.50 in (2014)
Month to date precipitation 4.50 0.14  
Year to date precipitation 28.79 29.89  
Snow  
Snow 0.00 in 0.00 in 0.00 in (2015)
Month to date snowfall 0.0 0.0  
Since 1 July snowfall 0.0 0.0  
Since 1 September snowfall 0.0 0.0  
Snow Depth 0.00 in    
Sea Level Pressure  
Sea Level Pressure 29.88 in    
Wind  
Wind Speed 9 mph (West)    
Max Wind Speed 28 mph    
Max Gust Speed 36 mph    
Visibility 8 miles    
Events Fog , Rain , Thunderstorm    
T = Trace of Precipitation, MM = Missing Value Source: NWS Daily Summary

Daily Weather History Graph

Daily Weather History Graph

Search for Another Location

Airport or City:

Trip Planner

Search our weather history database for the weather conditions in past years. The results will help you decide how hot, cold, wet, or windy it might be!

Date:

Astronomy

Sep. 01, 2014 Rise Set
Actual Time 6:37 AM CDT 7:39 PM CDT
Civil Twilight 6:10 AM CDT 8:06 PM CDT
Nautical Twilight 5:38 AM CDT 8:38 PM CDT
Astronomical Twilight 5:04 AM CDT 9:12 PM CDT
Moon 1:20 PM CDT (9/1) 11:44 PM CDT (9/1)
Length of Visible Light 13h 55m
Length of Day
13h 01m
Waxing Crescent, 42% of the Moon is Illuminated
Sep 1
Waxing Crescent
Sep 2
First Quarter
Sep 8
Full
Sep 15
Last Quarter
Sep 24
New

Hourly Weather History & Observations

Time (CDT) Temp. Heat Index Dew Point Humidity Pressure Visibility Wind Dir Wind Speed Gust Speed Precip Events Conditions
12:54 AM 78.1 °F - 69.1 °F 74% 29.85 in 10.0 mi South 9.2 mph - N/A   Clear
1:39 AM 75.0 °F - 63.0 °F 66% 29.93 in 10.0 mi WNW 24.2 mph 36.8 mph 0.00 in Rain Light Rain
1:54 AM 70.0 °F - 64.9 °F 84% 29.90 in 10.0 mi WNW 10.4 mph 24.2 mph 0.02 in Rain Light Rain
2:54 AM 69.1 °F - 66.0 °F 90% 29.86 in 10.0 mi West 6.9 mph - 0.00 in   Scattered Clouds
3:54 AM 66.9 °F - 64.9 °F 93% 29.85 in 10.0 mi SW 5.8 mph - N/A   Partly Cloudy
4:49 AM 68.0 °F - 66.2 °F 94% 29.94 in 9.0 mi West 15.0 mph 21.9 mph 0.00 in Rain , Thunderstorm Rain
4:54 AM 68.0 °F - 64.9 °F 90% 29.91 in 6.0 mi West 15.0 mph 21.9 mph 0.02 in Rain , Thunderstorm Heavy Rain
5:04 AM 66.9 °F - 64.9 °F 93% 29.93 in 6.0 mi West 13.8 mph - 0.05 in Rain Rain
5:28 AM 66.9 °F - 64.9 °F 93% 29.96 in 6.0 mi WSW 15.0 mph - 0.09 in Rain , Thunderstorm Rain
5:52 AM 66.2 °F - 64.4 °F 94% 29.98 in 10.0 mi WSW 12.7 mph - 0.13 in Rain Light Rain
5:54 AM 66.9 °F - 64.9 °F 93% 29.95 in 10.0 mi WSW 12.7 mph - 0.14 in Rain Light Rain
6:54 AM 66.0 °F - 64.0 °F 93% 29.82 in 10.0 mi SE 16.1 mph - 0.10 in Rain Light Rain
7:54 AM 66.0 °F - 64.0 °F 93% 29.73 in 10.0 mi SSE 21.9 mph 31.1 mph 0.00 in Rain Light Rain
8:09 AM 66.9 °F - 64.0 °F 90% 29.79 in 10.0 mi North - - 0.00 in Rain Light Rain
8:54 AM 69.1 °F - 64.9 °F 87% 29.79 in 10.0 mi South 11.5 mph - 0.00 in   Clear
9:54 AM 69.1 °F - 64.0 °F 84% 29.84 in 10.0 mi West 5.8 mph - N/A   Clear
10:54 AM 71.1 °F - 64.9 °F 81% 29.86 in 10.0 mi West 11.5 mph - N/A   Clear
11:54 AM 73.9 °F - 66.0 °F 76% 29.88 in 10.0 mi West 12.7 mph 21.9 mph N/A   Partly Cloudy
12:54 PM 79.0 °F - 66.0 °F 64% 29.88 in 10.0 mi SW 16.1 mph - N/A   Clear
1:54 PM 81.0 °F 82.7 °F 64.9 °F 58% 29.88 in 10.0 mi WSW 13.8 mph - N/A   Clear
2:54 PM 82.9 °F 84.6 °F 64.9 °F 54% 29.88 in 10.0 mi West 11.5 mph - N/A   Mostly Cloudy
3:54 PM 82.9 °F 85.4 °F 66.9 °F 58% 29.88 in 10.0 mi West 8.1 mph - N/A   Mostly Cloudy
4:54 PM 82.0 °F 84.5 °F 66.9 °F 60% 29.88 in 10.0 mi West 9.2 mph - N/A   Mostly Cloudy
5:54 PM 79.0 °F - 68.0 °F 69% 29.85 in 10.0 mi NE 3.5 mph - 0.00 in Rain , Thunderstorm Light Rain
6:17 PM 75.0 °F - 72.0 °F 90% 29.89 in 7.0 mi North - - 0.03 in Rain , Thunderstorm Light Thunderstorms and Rain
6:26 PM 73.9 °F - 71.1 °F 91% 29.90 in 1.8 mi WSW 10.4 mph - 0.05 in Rain , Thunderstorm Heavy Thunderstorms and Rain
6:54 PM 71.1 °F - 70.0 °F 96% 29.91 in 0.5 mi WSW 9.2 mph - 0.79 in Fog , Rain , Thunderstorm Heavy Thunderstorms and Rain
7:03 PM 71.1 °F - 70.0 °F 96% 29.88 in 0.2 mi ESE 6.9 mph - 0.43 in Fog , Rain , Thunderstorm Heavy Thunderstorms and Rain
7:08 PM 71.1 °F - 70.0 °F 96% 29.88 in 1.0 mi Calm Calm - 0.48 in Rain , Thunderstorm Light Thunderstorms and Rain
7:11 PM 71.1 °F - 70.0 °F 96% 29.89 in 4.0 mi North 5.8 mph - 0.48 in Rain , Thunderstorm Light Thunderstorms and Rain
7:17 PM 71.1 °F - 70.0 °F 96% 29.89 in 4.0 mi NNW 3.5 mph - 0.49 in Rain , Thunderstorm Rain
7:23 PM 71.1 °F - 70.0 °F 96% 29.89 in 1.8 mi NNW 4.6 mph - 0.52 in Rain , Thunderstorm Heavy Rain
7:35 PM 71.1 °F - 70.0 °F 96% 29.89 in 3.0 mi NNW 4.6 mph - 0.63 in Rain , Thunderstorm Rain
7:54 PM 71.1 °F - 69.1 °F 93% 29.86 in 8.0 mi ENE 6.9 mph - 0.67 in Rain , Thunderstorm Light Rain
8:08 PM 71.1 °F - 70.0 °F 96% 29.90 in 5.0 mi NNW 12.7 mph - 0.04 in Rain , Thunderstorm Light Thunderstorms and Rain
8:25 PM 70.0 °F - 70.0 °F 100% 29.88 in 8.0 mi Variable 4.6 mph - 0.12 in Rain , Thunderstorm Light Thunderstorms and Rain
8:47 PM 71.1 °F - 70.0 °F 96% 29.90 in 7.0 mi NNE 4.6 mph - 0.20 in Rain , Thunderstorm Light Rain
8:50 PM 71.6 °F - 69.8 °F 94% 29.89 in 6.0 mi NNE 5.8 mph - 0.20 in Rain , Thunderstorm Rain
8:54 PM 71.1 °F - 70.0 °F 96% 29.88 in 7.0 mi ENE 5.8 mph - 0.22 in Rain , Thunderstorm Thunderstorms and Rain
9:02 PM 71.1 °F - 70.0 °F 96% 29.90 in 8.0 mi Variable 6.9 mph - 0.01 in Rain , Thunderstorm Light Thunderstorms and Rain
9:07 PM 71.1 °F - 70.0 °F 96% 29.90 in 2.5 mi Calm Calm - 0.01 in Rain , Thunderstorm Heavy Thunderstorms and Rain
9:10 PM 71.1 °F - 70.0 °F 96% 29.91 in 1.8 mi Calm Calm - 0.03 in Rain , Thunderstorm Heavy Rain
9:22 PM 70.0 °F - 70.0 °F 100% 29.92 in 1.0 mi Calm Calm - 0.30 in Rain , Thunderstorm Heavy Rain
9:30 PM 71.6 °F - 69.8 °F 94% 29.92 in 3.0 mi WNW 3.5 mph - N/A Rain , Thunderstorm Light Rain
9:33 PM 71.1 °F - 70.0 °F 96% 29.91 in 7.0 mi Calm Calm - 0.38 in Rain Light Rain
9:42 PM 71.1 °F - 70.0 °F 96% 29.91 in 10.0 mi Calm Calm - 0.38 in   Overcast
9:54 PM 71.1 °F - 70.0 °F 96% 29.90 in 10.0 mi Calm Calm - 0.38 in Rain Light Rain
10:09 PM 71.1 °F - 70.0 °F 96% 29.89 in 10.0 mi NNE 5.8 mph - 0.01 in Rain , Thunderstorm Light Rain
10:54 PM 71.1 °F - 70.0 °F 96% 29.89 in 7.0 mi Calm Calm - 0.10 in Rain , Thunderstorm Light Rain
11:01 PM 71.1 °F - 70.0 °F 96% 29.90 in 10.0 mi Calm Calm - 0.00 in Rain Light Rain
11:54 PM 71.1 °F - 70.0 °F 96% 29.91 in 9.0 mi WSW 5.8 mph - 0.00 in Rain , Thunderstorm Light Rain